User: anonymous   Login
Location: Ferma
(41.9500°N, 44.5167°E)
Time: 00:16:19
(UTC+00:00)
Language:

Cosmos 2237 - Orbit

View from above orbital plane
View from above orbital plane
View from above satellite
View from above satellite

Ground track
Ground track

The orbit data is extracted from the following two-line orbital elements,

1 22565U 93016A   22020.60676286 -.00000183  00000-0 -72599-4 0  9996
2 22565  70.8363 109.7043 0004622 152.6139 207.5226 14.12460355486210
Epoch (UTC): 20 January 2022 14:33:44
Eccentricity: 0.0004622
inclination: 70.8363°
perigee height: 847 km
apogee height: 854 km
right ascension of ascending node: 109.7043°
argument of perigee: 152.6139°
revolutions per day: 14.12460355
mean anomaly at epoch: 207.5226°
orbit number at epoch: 48621

The dashed part of the orbit path shows where the satellite is in the earth's shadow,  

DLR